15 daagse weersverwachting Slagelse (DK)

  • Overzicht
  • Per uur
  • 15 dagen
  • Extra
  • Vergelijk
  • Kaarten
  • Dagkaart
  • Meer »
  • Info
  • Statistieken
  • Directe link
    Temp 6h Neerslag Wind  
 05:44     20:41    Daglengte: 14:57 Vandaag
20:00
1.3 mm
6
 05:42     20:43    Daglengte: 15:01 Morgen
02:00
 
6
08:00
 
6
14:00
12°
 
6
20:00
10°
 
3
 05:40     20:45    Daglengte: 15:05 Zaterdag 28 Apr
02:00
1.2 mm
2
08:00
 
4
14:00
14°
 
5
20:00
11°
6.1 mm
4
 05:38     20:47    Daglengte: 15:09 Zondag 29 Apr
02:00
 
3
08:00
 
2
14:00
11°
 
3
Locatie info
Region: SjŠlland
Latitude: 55.4051°N
Longitude: 11.3571°E
51 masl
Postcode: 4200
Temp/Neerslag /Baro Onweer/Dauwpunt
    Temp Baro 1h Neerslag Dauwpunt Wind UV Bewolking  
 05:44     20:41    Daglengte: 14:57 Vandaag
18:00
10°
1008.1 hPa 1.3 mm
54%
4.5°
7
Windvlaag: 4.2 km/h
10%
19:00
10°
Voelt als: 6.7°
1008.5 hPa
76%
3.3°
7
Windvlaag: 3.9 km/h
10%
20:00
Voelt als: 5.5°
1009.3 hPa
17%
2.8°
6
Windvlaag: 4.8 km/h
10%
21:00
Voelt als: 4.6°
1009.7 hPa
17%
2.2°
6
Windvlaag: 4.6 km/h
3%
22:00
Voelt als: 3.9°
1010.0 hPa
14%
1.7°
6
Windvlaag: 5.3 km/h
3%
23:00
Voelt als: 3.2°
1010.4 hPa
14%
1.4°
6
Windvlaag: 5.5 km/h
10%
 05:42     20:43    Daglengte: 15:01 Morgen
00:00
Voelt als: 2.9°
1010.6 hPa
14%
2.1°
6
Windvlaag: 5.5 km/h
12%
01:00
Voelt als: 2.8°
1010.6 hPa
16%
3.1°
6
Windvlaag: 5.7 km/h
11%
02:00
Voelt als: 2.8°
1010.5 hPa
14%
3.5°
6
Windvlaag: 6.4 km/h
11%
03:00
Voelt als: 3.1°
1010.5 hPa
14%
4.0°
6
Windvlaag: 6.9 km/h
51%
04:00
Voelt als: 3.2°
1010.4 hPa
18%
4.2°
5
Windvlaag: 6.9 km/h
48%
05:00
Voelt als: 3.1°
1010.2 hPa
14%
4.3°
5
Windvlaag: 7.2 km/h
6%
06:00
Voelt als: 2.8°
1010.2 hPa
14%
4.0°
5
Windvlaag: 7.8 km/h
8%
07:00
Voelt als: 3.2°
1010.4 hPa
14%
4.7°
6
Windvlaag: 6.6 km/h
14%
08:00
Voelt als: 4.4°
1010.8 hPa
14%
5.0°
6
Windvlaag: 7.8 km/h
13%
09:00
Voelt als: 5.7°
1011.1 hPa
14%
4.8°
6
Windvlaag: 7.6 km/h
13%
10:00
10°
Voelt als: 6.8°
1011.3 hPa
14%
4.6°
6
Windvlaag: 7.4 km/h
14%
11:00
11°
1011.7 hPa
60%
4.5°
6
Windvlaag: 7.5 km/h
13%
12:00
11°
1011.8 hPa
68%
5.0°
6
Windvlaag: 7.4 km/h
11%
13:00
12°
1011.8 hPa
69%
3.7°
6
Windvlaag: 7.2 km/h
8%
14:00
12°
1011.6 hPa
64%
3.6°
6
Windvlaag: 7.5 km/h
44%
15:00
12°
1011.4 hPa
17%
3.6°
6
Windvlaag: 8.1 km/h
20%
16:00
13°
1011.2 hPa
14%
3.4°
6
Windvlaag: 7.7 km/h
64%
17:00
13°
1011.1 hPa
14%
3.1°
5
Windvlaag: 6.2 km/h
66%
18:00
12°
1011.0 hPa
14%
2.7°
4
Windvlaag: 5.2 km/h
71%
19:00
11°
1011.2 hPa
14%
3.0°
4
Windvlaag: 4.9 km/h
74%
20:00
10°
1011.2 hPa
14%
3.4°
3
Windvlaag: 4.1 km/h
86%
21:00
10°
Voelt als: 8.8°
1011.6 hPa
14%
4.3°
2
Windvlaag: 3.7 km/h
69%
22:00
Voelt als: 8.5°
1011.7 hPa
23%
5.3°
1
Windvlaag: 3.3 km/h
86%
23:00
Voelt als: 7.8°
1011.5 hPa
81%
5.6°
2
Windvlaag: 2.7 km/h
81%
 05:40     20:45    Daglengte: 15:05 Zaterdag 28 Apr
00:00
Voelt als: 7.3°
1011.3 hPa
82%
5.7°
2
Windvlaag: 2.5 km/h
84%
01:00
Voelt als: 6.6°
1011.0 hPa 1.2 mm
82%
5.5°
2
Windvlaag: 2.6 km/h
63%
02:00
Voelt als: 6.0°
1010.6 hPa
80%
4.7°
2
Windvlaag: 2.1 km/h
63%
03:00
Voelt als: 5.7°
1009.9 hPa
15%
3.8°
3
Windvlaag: 0.6 km/h
19%
04:00
Voelt als: 5.2°
1009.6 hPa
14%
3.9°
3
Windvlaag: 1.8 km/h
50%
05:00
Voelt als: 5.2°
1009.1 hPa
14%
3.9°
3
Windvlaag: 2.2 km/h
22%
06:00
Voelt als: 5.1°
1008.8 hPa
14%
3.4°
4
Windvlaag: 2.4 km/h
22%
07:00
Voelt als: 5.5°
1008.7 hPa
14%
3.7°
4
Windvlaag: 2.2 km/h
49%
08:00
Voelt als: 7.0°
1008.5 hPa
14%
4.3°
4
Windvlaag: 2.3 km/h
16%
09:00
11°
1008.3 hPa
14%
4.5°
4
Windvlaag: 1.9 km/h
28%
10:00
12°
1008.0 hPa
14%
4.8°
4
Windvlaag: 2.4 km/h
32%
11:00
13°
1006.9 hPa
21%
8.4°
4
Windvlaag: 3 km/h
43%
12:00
13°
1007.0 hPa
21%
8.9°
5
Windvlaag: 1.6 km/h
54%
13:00
14°
1007.1 hPa
33%
9.5°
5
Windvlaag: 2 km/h
71%
14:00
14°
1007.1 hPa
97%
9.0°
5
Windvlaag: 2.3 km/h
78%
15:00
13°
1007.2 hPa
88%
10.2°
5
Windvlaag: 2.3 km/h
80%
16:00
13°
1007.2 hPa 2.1 mm
96%
9.1°
6
Windvlaag: 4.5 km/h
90%
17:00
12°
1007.6 hPa
92%
6.9°
6
Windvlaag: 6 km/h
78%
18:00
12°
1007.9 hPa 1.9 mm
87%
6.5°
6
Windvlaag: 6.7 km/h
30%
19:00
12°
1008.0 hPa 2.0 mm
90%
7.0°
5
Windvlaag: 7.9 km/h
46%
20:00
11°
1008.5 hPa
85%
7.0°
4
Windvlaag: 6.7 km/h
51%
21:00
10°
1009.5 hPa
87%
8.4°
4
Windvlaag: 6.8 km/h
68%
22:00
Voelt als: 7.4°
1010.0 hPa
35%
7.7°
4
Windvlaag: 6.2 km/h
65%
23:00
Voelt als: 6.7°
1010.6 hPa
86%
7.1°
4
Windvlaag: 5.1 km/h
84%
 05:38     20:47    Daglengte: 15:09 Zondag 29 Apr
00:00
Voelt als: 6.2°
1011.1 hPa
47%
7.0°
4
Windvlaag: 5 km/h
84%
01:00
Voelt als: 5.5°
1011.5 hPa
85%
5.7°
4
Windvlaag: 4.9 km/h
99%
02:00
Voelt als: 5.3°
1011.8 hPa
66%
5.7°
3
Windvlaag: 2.5 km/h
91%
03:00
Voelt als: 4.9°
1011.9 hPa
24%
4.7°
3
Windvlaag: 2.4 km/h
94%
04:00
Voelt als: 3.9°
1012.1 hPa
21%
5.0°
3
Windvlaag: 2.7 km/h
68%
05:00
Voelt als: 3.8°
1012.5 hPa
21%
4.5°
3
Windvlaag: 1.6 km/h
53%
06:00
Voelt als: 3.6°
1012.7 hPa
21%
3.7°
2
Windvlaag: 1.5 km/h
21%
07:00
Voelt als: 3.8°
1013.0 hPa
21%
3.7°
3
Windvlaag: 1.1 km/h
24%
08:00
Voelt als: 4.9°
1013.6 hPa
21%
3.4°
2
Windvlaag: 0.9 km/h
66%
09:00
Voelt als: 4.8°
1015.1 hPa
21%
2.8°
4
Windvlaag: 3.9 km/h
18%
10:00
Voelt als: 6.1°
1015.4 hPa
23%
1.0°
4
Windvlaag: 2.5 km/h
47%
11:00
Voelt als: 7.2°
1015.7 hPa
21%
0.1°
4
Windvlaag: 1.9 km/h
13%
12:00
10°
Voelt als: 8.3°
1015.8 hPa
21%
-0.6°
3
Windvlaag: 1.5 km/h
20%
13:00
11°
1015.8 hPa
21%
-1.0°
3
Windvlaag: 1.9 km/h
20%
14:00
11°
1015.6 hPa
21%
-1.0°
3
Windvlaag: 2.2 km/h
54%
15:00
13°
1011.2 hPa 5.6 mm
100%
0.1°
2
Windvlaag: 1.7 km/h
73%
16:00
14°
1010.8 hPa 5.6 mm
100%
0.7°
2
Windvlaag: 2.1 km/h
56%
17:00
14°
1010.5 hPa 5.6 mm
100%
1.3°
2
Windvlaag: 2.7 km/h
93%
Temp/Neerslag /Baro Onweer/Dauwpunt
    Temp Baro Neerslag Dauwpunt Wind Bewolking  
 05:44     20:41    Daglengte: 14:57 Vandaag
20:00
Voelt als: 5.5°
1009.3 hPa 1.3 mm 2.8°
6
10%
23:00
Voelt als: 3.2°
1010.4 hPa   1.4°
6
10%
 05:42     20:43    Daglengte: 15:01 Morgen
02:00
Voelt als: 2.8°
1010.5 hPa   3.5°
6
11%
05:00
Voelt als: 3.1°
1010.2 hPa   4.3°
5
6%
08:00
Voelt als: 4.4°
1010.8 hPa   5.0°
6
13%
11:00
11°
1011.7 hPa   4.5°
6
13%
14:00
12°
1011.6 hPa   3.6°
6
44%
17:00
13°
1011.1 hPa   3.1°
5
66%
20:00
10°
1011.2 hPa   3.4°
3
86%
23:00
Voelt als: 7.8°
1011.5 hPa   5.6°
2
81%
 05:40     20:45    Daglengte: 15:05 Zaterdag 28 Apr
02:00
Voelt als: 6.0°
1010.6 hPa 1.2 mm 4.7°
2
63%
05:00
Voelt als: 5.2°
1009.1 hPa   3.9°
3
22%
08:00
Voelt als: 7.0°
1008.5 hPa   4.3°
4
16%
11:00
13°
1006.9 hPa   8.4°
4
43%
14:00
14°
1007.1 hPa   9.0°
5
78%
17:00
12°
1007.6 hPa 2.1 mm 6.9°
6
78%
20:00
11°
1008.5 hPa 4.0 mm 7.0°
4
51%
23:00
Voelt als: 6.7°
1010.6 hPa   7.1°
4
84%
 05:38     20:47    Daglengte: 15:09 Zondag 29 Apr
02:00
Voelt als: 5.3°
1011.8 hPa   5.7°
3
91%
05:00
Voelt als: 3.8°
1012.5 hPa   4.5°
3
53%
08:00
Voelt als: 4.9°
1013.6 hPa   3.4°
2
66%
11:00
Voelt als: 7.2°
1015.7 hPa   0.1°
4
13%
14:00
11°
1015.6 hPa   -1.0°
3
54%
17:00
14°
1010.5 hPa 16.8 mm 1.3°
2
93%
20:00
12°
1009.4 hPa 16.8 mm 0.3°
4
74%
23:00
Voelt als: 3.2°
1011.1 hPa   1.2°
5
1%
 05:35     20:49    Daglengte: 15:14 Maandag 30 Apr
02:00
Voelt als: 4.4°
1009.3 hPa 0.1 mm 1.4°
4
1%
05:00
Voelt als: 2.7°
1006.9 hPa 0.3 mm 2.3°
7
1%
08:00
Voelt als: 3.0°
1003.4 hPa 0.7 mm 2.9°
9
1%
11:00
Voelt als: 5.3°
1000.7 hPa 2.0 mm 6.3°
10
1%
14:00
Voelt als: 4.6°
1000.1 hPa 3.5 mm 7.2°
8
1%
17:00
11°
1000.8 hPa 0.6 mm 8.4°
9
1%
20:00
10°
Voelt als: 6.7°
1002.0 hPa 0.7 mm 6.8°
6
1%
23:00
Voelt als: 4.1°
1002.3 hPa   5.2°
6
0%
 05:33     20:51    Daglengte: 15:18 Dinsdag 01 Mei
02:00
Voelt als: 4.0°
1001.9 hPa   5.0°
8
0%
05:00
Voelt als: 0.4°
1001.8 hPa 0.1 mm 3.4°
9
1%
08:00
Voelt als: 1.0°
1002.3 hPa 0.6 mm 4.2°
13
1%
11:00
Voelt als: 1.7°
1004.6 hPa 0.7 mm 5.1°
13
1%
14:00
Voelt als: 2.5°
1007.4 hPa 1.1 mm 5.3°
12
1%
17:00
Voelt als: 3.6°
1009.4 hPa   5.5°
11
1%
20:00
Voelt als: 2.7°
1011.4 hPa   4.6°
9
1%
23:00
Voelt als: 1.9°
1013.5 hPa   4.1°
7
0%
 05:31     20:53    Daglengte: 15:22 Woensdag 02 Mei
02:00
Voelt als: 1.2°
1014.5 hPa   3.7°
5
1%
05:00
Voelt als: 0.4°
1015.5 hPa   2.8°
4
0%
08:00
Voelt als: 2.9°
1017.0 hPa   2.9°
4
0%
11:00
Voelt als: 7.1°
1018.4 hPa   3.2°
4
0%
14:00
11°
1018.9 hPa   2.5°
2
0%
17:00
12°
1018.6 hPa   1.7°
2
1%
20:00
Voelt als: 9.3°
1018.8 hPa   2.7°
1
1%
23:00
Voelt als: 7.6°
1019.6 hPa   1.0°
2
1%
 05:29     20:55    Daglengte: 15:26 Donderdag 03 Mei
02:00
Voelt als: 7.0°
1019.2 hPa   0.7°
2
1%
05:00
Voelt als: 5.4°
1019.3 hPa   0.1°
3
1%
08:00
Voelt als: 6.0°
1019.7 hPa   2.8°
4
1%
11:00
12°
1019.9 hPa   4.3°
4
0%
14:00
14°
1019.7 hPa   4.6°
4
0%
17:00
14°
1019.2 hPa   6.2°
4
0%
20:00
10°
1019.5 hPa   5.6°
3
0%
 05:27     20:57    Daglengte: 15:30 Vrijdag 04 Mei
02:00
Voelt als: 4.0°
1020.9 hPa   0.8°
3
1%
08:00
Voelt als: 6.6°
1021.5 hPa   4.2°
4
1%
14:00
15°
1022.2 hPa   6.5°
5
0%
20:00
11°
1021.1 hPa   4.5°
4
0%
 05:25     20:59    Daglengte: 15:34 Zaterdag 05 Mei
02:00
Voelt als: 5.3°
1021.4 hPa   3.2°
3
0%
08:00
10°
Voelt als: 6.9°
1019.9 hPa   4.8°
5
0%
14:00
17°
1018.8 hPa   11.1°
5
0%
20:00
14°
1017.4 hPa   10.0°
4
0%
 05:23     21:01    Daglengte: 15:38 Zondag 06 Mei
02:00
Voelt als: 6.7°
1016.8 hPa   7.7°
4
0%
08:00
Voelt als: 9.0°
1014.1 hPa 0.3 mm 6.3°
0
47%
14:00
13°
1015.0 hPa 0.2 mm 5.8°
1
45%
20:00
12°
1014.9 hPa 0.2 mm 6.4°
0
36%
 05:21     21:03    Daglengte: 15:42 Maandag 07 Mei
02:00
Voelt als: 7.7°
1015.4 hPa 0.2 mm 5.0°
0
35%
08:00
1015.0 hPa 0.1 mm 5.7°
1
37%
14:00
14°
1014.8 hPa 0.5 mm 6.2°
1
38%
20:00
12°
1014.3 hPa   6.5°
1
32%
 05:19     21:05    Daglengte: 15:46 Dinsdag 08 Mei
02:00
Voelt als: 8.1°
1014.7 hPa   5.4°
1
34%
08:00
Voelt als: 9.0°
1014.5 hPa 0.2 mm 5.4°
1
42%
14:00
14°
1014.7 hPa   4.8°
1
32%
20:00
12°
1014.4 hPa   5.5°
1
24%
 05:17     21:07    Daglengte: 15:50 Woensdag 09 Mei
02:00
Voelt als: 7.7°
1015.4 hPa 0.1 mm 4.7°
1
19%
08:00
Voelt als: 9.1°
1015.7 hPa   4.8°
1
21%
14:00
15°
1016.3 hPa 0.1 mm 4.5°
1
25%
20:00
12°
1015.9 hPa 0.2 mm 5.7°
1
24%
 05:15     21:08    Daglengte: 15:53 Donderdag 10 Mei
02:00
Voelt als: 7.2°
1016.8 hPa   4.1°
1
22%
08:00
10°
Voelt als: 8.9°
1016.8 hPa   4.6°
2
23%
14:00
15°
1016.4 hPa   4.4°
2
26%
20:00
12°
1015.4 hPa 0.2 mm 6.0°
1
26%
 05:13     21:10    Daglengte: 15:57 Vrijdag 11 Mei
02:00
Voelt als: 8.1°
1015.9 hPa 0.4 mm 5.4°
1
25%
08:00
Voelt als: 9.4°
1015.7 hPa 0.3 mm 5.8°
1
31%
14:00
15°
1015.5 hPa 0.2 mm 6.0°
1
30%
  CAPE Lifted Index Hail Supercell Tornado SRH 3km CL BTM PRES CL TOP PRES Swiss DWD icon SMHI TS
 05:44     20:41    Daglengte: 14:57 Vandaag
18:00 116 J/kg 0.3 K 0 % 0 % 0 % 0 m²/s² 0 0 1.59 1
19:00 108 J/kg 0.4 K 0 % 0 % 0 % 0 m²/s² 0 0 1.84 2
20:00 67 J/kg 0.8 K 0 % 0 % 0 % 0 m²/s² 0 0 2.24 2
21:00 67 J/kg 1.0 K 0 % 0 % 0 % 0 m²/s² 0 0 2.62 1
22:00 41 J/kg 1.4 K 0 % 0 % 0 % 0 m²/s² 0 0 3.29 0
23:00 36 J/kg 1.7 K 0 % 0 % 0 % 0 m²/s² 0 0 3.59 0
 05:42     20:43    Daglengte: 15:01 Morgen
00:00 28 J/kg 1.8 K 0 % 0 % 0 % 0 m²/s² 0 0 3.42 1
01:00 54 J/kg 1.1 K 0 % 0 % 0 % 0 m²/s² 0 0 2.39 1
02:00 84 J/kg 0.7 K 0 % 0 % 0 % 0 m²/s² 0 0 1.96 1
03:00 79 J/kg 1.1 K 0 % 0 % 0 % 0 m²/s² 0 0 2.99 2
04:00 34 J/kg 1.6 K 0 % 0 % 0 % 0 m²/s² 0 0 4.24 2
05:00 0 J/kg 2.0 K 0 % 0 % 0 % 0 m²/s² 0 0 4.55 1
06:00 0 J/kg 2.6 K 0 % 0 % 0 % 0 m²/s² 0 0 5.3 0
07:00 0 J/kg 3.5 K 0 % 0 % 0 % 0 m²/s² 0 0 6.35 0
08:00 49 J/kg 3.8 K 0 % 0 % 0 % 0 m²/s² 0 0 5.96 0
09:00 104 J/kg 3.8 K 0 % 0 % 0 % 0 m²/s² 0 0 6.53 0
10:00 158 J/kg 3.9 K 0 % 0 % 0 % 0 m²/s² 0 0 6.78 0
11:00 156 J/kg 4.6 K 0 % 0 % 0 % 0 m²/s² 0 0 7.72 1
12:00 122 J/kg 5.3 K 0 % 0 % 0 % 0 m²/s² 0 0 8.45 0
13:00 118 J/kg 5.4 K 0 % 0 % 0 % 0 m²/s² 0 0 8.37 1
14:00 104 J/kg 5.6 K 0 % 0 % 0 % 0 m²/s² 0 0 8.27 3
15:00 105 J/kg 6.1 K 0 % 0 % 0 % 0 m²/s² 0 0 8.35 2
16:00 79 J/kg 6.4 K 0 % 0 % 0 % 0 m²/s² 0 0 8.68 3
17:00 55 J/kg 6.7 K 0 % 0 % 0 % 0 m²/s² 0 0 8.32 3
18:00 43 J/kg 6.7 K 0 % 0 % 0 % 0 m²/s² 0 0 7.15 3
19:00 29 J/kg 6.3 K 0 % 0 % 0 % 0 m²/s² 0 0 6.66 3
20:00 1 J/kg 5.3 K 0 % 0 % 0 % 0 m²/s² 0 0 5.69 3
21:00 11 J/kg 5.6 K 0 % 0 % 0 % 0 m²/s² 0 0 5.99 3
22:00 13 J/kg 5.2 K 0 % 0 % 0 % 0 m²/s² 0 0 5.59 3
23:00 19 J/kg 4.5 K 0 % 0 % 0 % 0 m²/s² 0 0 4.89 61
 05:40     20:45    Daglengte: 15:05 Zaterdag 28 Apr
00:00 26 J/kg 3.6 K 0 % 0 % 0 % 0 m²/s² 0 0 3.99 61
01:00 0 J/kg 3.5 K 0 % 0 % 0 % 0 m²/s² 0 0 3.95 61
02:00 0 J/kg 3.2 K 0 % 0 % 0 % 0 m²/s² 0 0 3.86 3
03:00 0 J/kg 2.6 K 0 % 0 % 0 % 0 m²/s² 0 0 3.44 1
04:00 0 J/kg 2.0 K 0 % 0 % 0 % 0 m²/s² 0 0 3.11 3
05:00 0 J/kg 1.8 K 0 % 0 % 0 % 0 m²/s² 0 0 2.76 1
06:00 0 J/kg 1.3 K 0 % 0 % 0 % 0 m²/s² 0 0 2.23 1
07:00 0 J/kg 1.1 K 0 % 0 % 0 % 0 m²/s² 0 0 2.48 2
08:00 0 J/kg 1.0 K 0 % 0 % 0 % 0 m²/s² 0 0 1.96 0
09:00 0 J/kg 0.8 K 0 % 0 % 0 % 0 m²/s² 0 0 2.87 2
10:00 0 J/kg 1.6 K 0 % 0 % 0 % 0 m²/s² 0 0 4.21 2
11:00 3 J/kg 2.9 K 0 % 0 % 0 % 0 m²/s² 0 0 6.92 2
12:00 110 J/kg 2.2 K 0 % 0 % 0 % 0 m²/s² 0 0 6.55 2
13:00 93 J/kg 2.6 K 0 % 0 % 0 % 0 m²/s² 0 0 7.07 3
14:00 68 J/kg 3.0 K 0 % 0 % 0 % 0 m²/s² 0 0 7.23 3
15:00 17 J/kg 3.7 K 0 % 0 % 0 % 0 m²/s² 0 0 6.97 3
16:00 0 J/kg 4.1 K 0 % 0 % 0 % 0 m²/s² 0 0 7.28 80
17:00 0 J/kg 5.4 K 0 % 0 % 0 % 0 m²/s² 0 0 8.58 1
18:00 3 J/kg 7.0 K 0 % 0 % 0 % 0 m²/s² 0 0 10.81 2
19:00 5 J/kg 7.3 K 0 % 0 % 0 % 0 m²/s² 0 0 13.09 80
20:00 16 J/kg 7.4 K 0 % 0 % 0 % 0 m²/s² 0 0 15.2 2
21:00 9 J/kg 8.1 K 0 % 0 % 0 % 0 m²/s² 0 0 17.37 3
22:00 4 J/kg 8.7 K 0 % 0 % 0 % 0 m²/s² 0 0 19.47 3
23:00 0 J/kg 9.6 K 0 % 0 % 0 % 0 m²/s² 0 0 21 3
 05:38     20:47    Daglengte: 15:09 Zondag 29 Apr
00:00 0 J/kg 10.3 K 0 % 0 % 0 % 0 m²/s² 0 0 19.57 3
01:00 0 J/kg 11.1 K 0 % 0 % 0 % 0 m²/s² 0 0 19.23 3
02:00 0 J/kg 12.6 K 0 % 0 % 0 % 0 m²/s² 0 0 19.83 3
03:00 0 J/kg 13.5 K 0 % 0 % 0 % 0 m²/s² 0 0 20.22 3
04:00 0 J/kg 14.6 K 0 % 0 % 0 % 0 m²/s² 0 0 19.52 3
05:00 0 J/kg 14.9 K 0 % 0 % 0 % 0 m²/s² 0 0 18.92 3
06:00 0 J/kg 15.4 K 0 % 0 % 0 % 0 m²/s² 0 0 18.94 1
07:00 0 J/kg 15.5 K 0 % 0 % 0 % 0 m²/s² 0 0 18.59 0
08:00 0 J/kg 14.8 K 0 % 0 % 0 % 0 m²/s² 0 0 17.65 0
09:00 0 J/kg 14.2 K 0 % 0 % 0 % 0 m²/s² 0 0 16.69 1
10:00 0 J/kg 13.5 K 0 % 0 % 0 % 0 m²/s² 0 0 15.66 3
11:00 0 J/kg 13.3 K 0 % 0 % 0 % 0 m²/s² 0 0 14.98 1
12:00 0 J/kg 13.3 K 0 % 0 % 0 % 0 m²/s² 0 0 14.14 0
13:00 0 J/kg 13.1 K 0 % 0 % 0 % 0 m²/s² 0 0 13.73 0
14:00 0 J/kg 12.5 K 0 % 0 % 0 % 0 m²/s² 0 0 13.16 2
15:00 0 J/kg 12.6 K 0 % 0 % 0 % 0 m²/s² 0 0 12.96
16:00 0 J/kg 11.3 K 0 % 0 % 0 % 0 m²/s² 0 0 11.75
17:00 0 J/kg 10.6 K 0 % 0 % 0 % 0 m²/s² 0 0 10.84
Temp Baro Wind Neerslag
  EWN Forecast EWN WRFDA DWD ICON FMI HIRLAM MET Norway GFS
 05:44     20:41    Daglengte: 14:57 Vandaag
20:00 8.7° 1009.3 hPa 6.3 m/s 1.3 mm 9.2° 1007.3 hPa 7.2 m/s 3.0 mm 8.7° 1009.5 hPa 5.6 m/s 2.4 mm 9.1° 1009.2 hPa 7.5 m/s 0.0 mm 7.8° 1009.3 hPa 6.6 m/s
23:00 6.8° 1010.4 hPa 5.9 m/s 0.0 mm 6.1° 1009.0 hPa 4.6 m/s 3.0 mm 6.7° 1010.1 hPa 4.7 m/s 0.0 mm 8.4° 1010.5 hPa 6.6 m/s 0.0 mm 5.6° 1010.7 hPa 6.2 m/s
 05:42     20:43    Daglengte: 15:01 Morgen
02:00 6.4° 1010.5 hPa 5.8 m/s 0.0 mm 6.6° 1009.0 hPa 5.7 m/s 3.1 mm 6.2° 1010.1 hPa 4.7 m/s 0.0 mm 7.7° 1010.7 hPa 6.6 m/s 0.0 mm 5.1° 1010.9 hPa 6.0 m/s
05:00 6.5° 1010.2 hPa 5.3 m/s 0.0 mm 4.9° 1008.7 hPa 4.2 m/s 3.6 mm 6.6° 1010.0 hPa 4.8 m/s 0.0 mm 7.7° 1010.4 hPa 5.8 m/s 0.0 mm 5.0° 1010.7 hPa 5.8 m/s
08:00 7.7° 1010.8 hPa 5.9 m/s 0.0 mm 8.1° 1009.4 hPa 6.4 m/s 3.7 mm 7.8° 1010.2 hPa 5.0 m/s 0.0 mm 8.5° 1011.1 hPa 6.7 m/s 0.0 mm 6.6° 1011.1 hPa 6.6 m/s
11:00 10.6° 1011.7 hPa 6.3 m/s 0.0 mm 11.8° 1009.9 hPa 6.9 m/s 3.7 mm 10.5° 1011.5 hPa 6.2 m/s 0.0 mm 11.8° 1011.9 hPa 6.9 m/s 0.0 mm 9.6° 1011.7 hPa 6.7 m/s
14:00 12.1° 1011.6 hPa 6.3 m/s 0.0 mm 13.0° 1009.8 hPa 6.2 m/s 3.7 mm 11.9° 1011.1 hPa 6.3 m/s 0.2 mm 13.5° 1012.3 hPa 6.6 m/s 0.0 mm 11.7° 1011.4 hPa 6.4 m/s
17:00 12.6° 1011.1 hPa 4.8 m/s 0.0 mm 14.1° 1009.0 hPa 5.0 m/s 3.7 mm 12.5° 1010.7 hPa 4.3 m/s 0.0 mm 13.8° 1012.6 hPa 5.8 m/s 0.0 mm 11.7° 1010.9 hPa 5.4 m/s
20:00 10.4° 1011.2 hPa 2.8 m/s 0.0 mm 9.1° 1009.3 hPa 3.1 m/s 5.2 mm 10.6° 1010.6 hPa 2.1 m/s 0.0 mm 12.1° 1012.9 hPa 3.5 m/s 0.0 mm 8.3° 1011.0 hPa 3.3 m/s
23:00 8.5° 1011.5 hPa 1.7 m/s 0.0 mm 8.5° 1008.7 hPa 1.7 m/s 12.3 mm 8.6° 1011.2 hPa 1.3 m/s 0.1 mm 8.8° 1013.5 hPa 1.7 m/s 0.0 mm 7.2° 1010.7 hPa 2.2 m/s
 05:40     20:45    Daglengte: 15:05 Zaterdag 28 Apr
02:00 7.4° 1010.6 hPa 2.2 m/s 1.2 mm 8.5° 1006.8 hPa 3.0 m/s 14.5 mm 7.8° 1010.2 hPa 2.2 m/s 0.3 mm 7.3° 1012.7 hPa 2.6 m/s 0.0 mm 6.2° 1009.0 hPa 3.0 m/s
05:00 7.3° 1009.1 hPa 3.2 m/s 0.0 mm 8.4° 1003.5 hPa 6.3 m/s 14.5 mm 6.9° 1008.0 hPa 2.7 m/s 0.0 mm 7.3° 1010.8 hPa 3.8 m/s 0.0 mm 7.2° 1006.9 hPa 4.3 m/s
08:00 9.0° 1008.5 hPa 3.6 m/s 0.0 mm 10.6° 1001.2 hPa 6.4 m/s 14.5 mm 8.9° 1007.4 hPa 3.2 m/s 0.0 mm 9.6° 1009.5 hPa 4.6 m/s 0.0 mm 7.8° 1005.8 hPa 2.0 m/s
11:00 12.8° 1006.9 hPa 4.3 m/s 0.0 mm 13.1° 1001.7 hPa 6.5 m/s 14.8 mm 13.0° 1007.0 hPa 4.2 m/s 0.0 mm 10.4° 1006.5 hPa 1.2 m/s
14:00 13.5° 1007.1 hPa 4.8 m/s 0.0 mm 13.4° 1003.5 hPa 8.9 m/s 15.3 mm 13.5° 1007.1 hPa 4.3 m/s 0.0 mm 9.8° 1007.8 hPa 4.0 m/s
17:00 12.1° 1007.6 hPa 5.6 m/s 2.1 mm 10.9° 1006.0 hPa 6.4 m/s 16.5 mm 13.4° 1007.5 hPa 5.8 m/s 0.5 mm 9.8° 1008.9 hPa 4.7 m/s
20:00 11.3° 1008.5 hPa 4.5 m/s 4.0 mm 10.1° 1008.2 hPa 4.6 m/s 16.8 mm 11.5° 1008.3 hPa 4.6 m/s 0.4 mm 8.2° 1010.8 hPa 2.9 m/s
23:00 8.8° 1010.6 hPa 3.7 m/s 0.0 mm 6.5° 1010.1 hPa 3.1 m/s 16.8 mm 9.1° 1010.7 hPa 4.3 m/s 0.0 mm 6.5° 1013.2 hPa 2.8 m/s
 05:38     20:47    Daglengte: 15:09 Zondag 29 Apr
02:00 7.3° 1011.8 hPa 2.9 m/s 0.0 mm 5.2° 1011.7 hPa 2.8 m/s 16.8 mm 7.3° 1012.5 hPa 4.2 m/s 0.0 mm 4.7° 1014.0 hPa 3.4 m/s
05:00 5.9° 1012.5 hPa 2.6 m/s 0.0 mm 3.1° 1012.0 hPa 2.9 m/s 16.8 mm 5.8° 1014.3 hPa 3.2 m/s 0.0 mm 3.2° 1014.3 hPa 2.7 m/s
08:00 6.6° 1013.6 hPa 2.3 m/s 0.0 mm 6.0° 1012.3 hPa 2.3 m/s 16.8 mm 6.4° 1015.7 hPa 3.7 m/s 0.0 mm 5.2° 1014.8 hPa 2.1 m/s
11:00 9.2° 1015.7 hPa 3.5 m/s 0.0 mm 10.4° 1012.0 hPa 2.0 m/s 16.8 mm 8.9° 1016.7 hPa 3.9 m/s 0.0 mm 8.7° 1015.3 hPa 1.7 m/s
14:00 11.2° 1015.6 hPa 3.0 m/s 0.0 mm 12.5° 1010.9 hPa 2.2 m/s 16.8 mm 10.9° 1016.8 hPa 3.2 m/s 0.0 mm 10.5° 1014.3 hPa 1.5 m/s
17:00 13.7° 1010.5 hPa 2.4 m/s 16.8 mm 13.7° 1010.5 hPa 2.4 m/s 16.8 mm 8.5° 1013.9 hPa 1.4 m/s
20:00 11.6° 1009.4 hPa 3.6 m/s 16.8 mm 11.6° 1009.4 hPa 3.6 m/s 16.8 mm 7.2° 1012.1 hPa 4.1 m/s
23:00 6.6° 1011.1 hPa 5.5 m/s 0.0 mm 6.6° 1011.1 hPa 5.5 m/s 0.1 mm
 05:35     20:49    Daglengte: 15:14 Maandag 30 Apr
02:00 7.1° 1009.3 hPa 4.1 m/s 0.1 mm 7.1° 1009.3 hPa 4.1 m/s 0.1 mm
05:00 6.8° 1006.9 hPa 7.3 m/s 0.3 mm 6.8° 1006.9 hPa 7.3 m/s 0.3 mm
08:00 7.3° 1003.4 hPa 8.8 m/s 0.7 mm 7.3° 1003.4 hPa 8.8 m/s 0.7 mm
11:00 9.2° 1000.7 hPa 9.6 m/s 2.0 mm 9.2° 1000.7 hPa 9.6 m/s 2.0 mm
14:00 8.3° 1000.1 hPa 7.6 m/s 3.5 mm 8.3° 1000.1 hPa 7.6 m/s 3.5 mm
17:00 10.6° 1000.8 hPa 8.5 m/s 0.6 mm 10.6° 1000.8 hPa 8.5 m/s 0.6 mm
20:00 9.5° 1002.0 hPa 5.8 m/s 0.7 mm 9.5° 1002.0 hPa 5.8 m/s 0.7 mm
23:00 7.4° 1002.3 hPa 5.6 m/s 0.0 mm 7.4° 1002.3 hPa 5.6 m/s 0.0 mm
 05:33     20:51    Daglengte: 15:18 Dinsdag 01 Mei
02:00 7.9° 1001.9 hPa 7.5 m/s 0.0 mm 7.9° 1001.8 hPa 7.5 m/s 0.1 mm
05:00 5.4° 1001.8 hPa 9.3 m/s 0.1 mm 5.4° 1001.8 hPa 9.3 m/s 0.1 mm
08:00 6.6° 1002.3 hPa 13.0 m/s 0.6 mm 6.6° 1002.3 hPa 13.0 m/s 0.6 mm
11:00 7.0° 1004.6 hPa 12.6 m/s 0.7 mm 7.0° 1004.6 hPa 12.6 m/s 0.7 mm
14:00 7.5° 1007.4 hPa 12.0 m/s 1.1 mm 7.5° 1007.4 hPa 12.0 m/s 1.1 mm
17:00 8.2° 1009.4 hPa 11.0 m/s 0.0 mm 8.2° 1009.4 hPa 11.0 m/s 0.1 mm
20:00 7.1° 1011.4 hPa 8.7 m/s 0.0 mm 7.1° 1011.4 hPa 8.7 m/s 0.1 mm
23:00 5.9° 1013.5 hPa 6.6 m/s 0.0 mm 5.9° 1013.5 hPa 6.6 m/s 0.0 mm
 05:31     20:53    Daglengte: 15:22 Woensdag 02 Mei
02:00 4.9° 1014.5 hPa 5.1 m/s 0.0 mm 4.9° 1014.5 hPa 5.1 m/s 0.1 mm
05:00 4.0° 1015.5 hPa 4.4 m/s 0.0 mm 4.0° 1015.5 hPa 4.4 m/s 0.0 mm
08:00 6.0° 1017.0 hPa 4.2 m/s 0.0 mm 5.9° 1017.0 hPa 4.2 m/s 0.0 mm
11:00 9.1° 1018.4 hPa 3.6 m/s 0.0 mm 9.1° 1018.4 hPa 3.6 m/s 0.0 mm
14:00 10.9° 1018.9 hPa 2.4 m/s 0.0 mm 10.9° 1018.9 hPa 2.4 m/s 0.0 mm
17:00 11.5° 1018.6 hPa 1.7 m/s 0.0 mm 11.5° 1018.6 hPa 1.7 m/s 0.0 mm
20:00 9.3° 1018.8 hPa 1.1 m/s 0.0 mm 9.3° 1018.8 hPa 1.1 m/s 0.0 mm
23:00 8.3° 1019.6 hPa 1.6 m/s 0.0 mm 8.3° 1019.6 hPa 1.6 m/s 0.0 mm
 05:29     20:55    Daglengte: 15:26 Donderdag 03 Mei
02:00 7.9° 1019.2 hPa 1.8 m/s 0.0 mm 7.9° 1019.2 hPa 1.8 m/s 0.0 mm
05:00 7.5° 1019.3 hPa 3.2 m/s 0.0 mm 7.5° 1019.3 hPa 3.2 m/s 0.0 mm
08:00 8.5° 1019.7 hPa 4.2 m/s 0.0 mm 8.5° 1019.7 hPa 4.2 m/s 0.0 mm
11:00 11.7° 1019.9 hPa 3.9 m/s 0.0 mm 11.7° 1019.9 hPa 3.9 m/s 0.0 mm
14:00 13.7° 1019.7 hPa 3.9 m/s 0.0 mm 13.7° 1019.7 hPa 3.9 m/s 0.0 mm
17:00 13.5° 1019.2 hPa 3.8 m/s 0.0 mm 13.5° 1019.2 hPa 3.8 m/s 0.0 mm
20:00 10.4° 1019.5 hPa 3.4 m/s 0.0 mm 10.4° 1019.5 hPa 3.4 m/s 0.0 mm
 05:27     20:57    Daglengte: 15:30 Vrijdag 04 Mei
02:00 6.5° 1020.9 hPa 3.5 m/s 0.0 mm 6.5° 1020.9 hPa 3.5 m/s 0.0 mm
08:00 8.7° 1021.5 hPa 3.7 m/s 0.0 mm 8.7° 1021.5 hPa 3.7 m/s 0.0 mm
14:00 14.9° 1022.2 hPa 4.6 m/s 0.0 mm 14.9° 1022.2 hPa 4.6 m/s 0.0 mm
20:00 10.5° 1021.1 hPa 4.3 m/s 0.0 mm 10.5° 1021.1 hPa 4.3 m/s 0.0 mm
 05:25     20:59    Daglengte: 15:34 Zaterdag 05 Mei
02:00 7.5° 1021.4 hPa 3.4 m/s 0.0 mm 7.5° 1021.4 hPa 3.4 m/s 0.0 mm
08:00 9.5° 1019.9 hPa 5.1 m/s 0.0 mm 9.5° 1019.9 hPa 5.1 m/s 0.0 mm
14:00 17.4° 1018.8 hPa 5.5 m/s 0.0 mm 17.4° 1018.8 hPa 5.5 m/s 0.0 mm
20:00 13.8° 1017.4 hPa 4.3 m/s 0.0 mm 13.8° 1017.4 hPa 4.3 m/s 0.0 mm
 05:23     21:01    Daglengte: 15:38 Zondag 06 Mei
02:00 9.1° 1016.8 hPa 4.4 m/s 0.0 mm 9.1° 1016.8 hPa 4.4 m/s 0.0 mm
08:00 9.0° 1014.1 hPa 0.4 m/s 0.3 mm
14:00 13.4° 1015.0 hPa 0.7 m/s 0.2 mm
20:00 11.6° 1014.9 hPa 0.4 m/s 0.2 mm
 05:21     21:03    Daglengte: 15:42 Maandag 07 Mei
02:00 7.7° 1015.4 hPa 0.4 m/s 0.2 mm
08:00 9.2° 1015.0 hPa 0.5 m/s 0.1 mm
14:00 14.0° 1014.8 hPa 1.2 m/s 0.5 mm
20:00 11.9° 1014.3 hPa 0.9 m/s 0.0 mm
 05:19     21:05    Daglengte: 15:46 Dinsdag 08 Mei
02:00 8.1° 1014.7 hPa 1.0 m/s 0.0 mm
08:00 9.0° 1014.5 hPa 0.9 m/s 0.2 mm
14:00 14.2° 1014.7 hPa 0.7 m/s 0.0 mm
20:00 12.0° 1014.4 hPa 0.8 m/s 0.0 mm
 05:17     21:07    Daglengte: 15:50 Woensdag 09 Mei
02:00 7.7° 1015.4 hPa 0.7 m/s 0.1 mm
08:00 9.1° 1015.7 hPa 0.9 m/s 0.0 mm
14:00 14.5° 1016.3 hPa 1.0 m/s 0.1 mm
20:00 11.8° 1015.9 hPa 1.0 m/s 0.2 mm
 05:15     21:08    Daglengte: 15:53 Donderdag 10 Mei
02:00 7.7° 1016.8 hPa 1.3 m/s 0.0 mm
08:00 9.5° 1016.8 hPa 1.7 m/s 0.0 mm
14:00 15.0° 1016.4 hPa 2.2 m/s 0.0 mm
20:00 12.3° 1015.4 hPa 1.4 m/s 0.2 mm
 05:13     21:10    Daglengte: 15:57 Vrijdag 11 Mei
02:00 8.4° 1015.9 hPa 1.3 m/s 0.4 mm
08:00 9.4° 1015.7 hPa 1.0 m/s 0.3 mm
14:00 14.9° 1015.5 hPa 0.6 m/s 0.2 mm
FMI Hirlam - 7.5 km EWN WRFDA - 12 km DWD ICON - 7 km GFS - 25 km Basiskaart






























































Updatetijd (Europe/Amsterdam) Resolutie Lengte Stap
FMI Hirlam 13:00, 19:00, 01:00, 07:00 7.5 km 49h 1h
EWN WRFDA 15:45, 21:45, 03:45, 09:45 12 km 73h 1h
DWD ICON 13:00, 19:00, 01:00, 07:00 7 km 75h 1h
GFS 15:15, 21:15, 03:15, 09:15 25 km 237h 3h
30+ mm
25-30 mm
20-25 mm
15-20 mm
10-15 mm
6-10 mm
4-6 mm
2-4 mm
1-2 mm
0.5-1 mm
0.2-0.5 mm
0.1-0.2 mm
30+ mm
25-30 mm
20-25 mm
15-20 mm
10-15 mm
6-10 mm
4-6 mm
2-4 mm
1-2 mm
0.5-1 mm
0.2-0.5 mm
0.1-0.2 mm
Sneeuwval
Natte sneeuw
Hagel
Vorst
30+ mm
25-30 mm
20-25 mm
15-20 mm
10-15 mm
6-10 mm
4-6 mm
2-4 mm
1-2 mm
0.5-1 mm
0.2-0.5 mm
0.1-0.2 mm
Sneeuwval
Natte sneeuw
Hagel
Vorst
Onweer
50 mm
40 mm
30 mm
26 mm
22 mm
18 mm
14 mm
10 mm
9 mm
8 mm
7 mm
6 mm
5 mm
4.5 mm
4 mm
3.5 mm
3 mm
2.5 mm
2 mm
1.5 mm
1 mm
0.8 mm
0.6 mm
0.4 mm
0.2 mm
0.05 mm
35°
30°
25°
20°
15°
10°
-5°
-10°
-15°
-20°
-25°
-30°
-35°
120> km/h
105 km/h
90 km/h
75 km/h
60 km/h
50 km/h
40 km/h
30 km/h
20 km/h
10 km/h
0 km/h
2600 J/kg
2400 J/kg
2200 J/kg
2000 J/kg
1800 J/kg
1600 J/kg
1400 J/kg
1200 J/kg
1000 J/kg
800 J/kg
600 J/kg
400 J/kg
200 J/kg
70 dBZ
65 dBZ
60 dBZ
55 dBZ
50 dBZ
45 dBZ
40 dBZ
35 dBZ
30 dBZ
25 dBZ
20 dBZ
15 dBZ
10 dBZ
5 dBZ
-1 K
-2 K
-3 K
-4 K
-5 K
-6 K
-7 K
-8 K
-9 K
950 m²/s²
900 m²/s²
850 m²/s²
800 m²/s²
750 m²/s²
700 m²/s²
650 m²/s²
600 m²/s²
550 m²/s²
500 m²/s²
450 m²/s²
400 m²/s²
350 m²/s²
300 m²/s²
250 m²/s²
200 m²/s²
150 m²/s²
100 m²/s²
46 m/s
44 m/s
42 m/s
40 m/s
38 m/s
36 m/s
34 m/s
32 m/s
30 m/s
28 m/s
26 m/s
24 m/s
22 m/s
20 m/s
16 m/s
12 m/s
8 m/s
4 m/s
30 m/s
28 m/s
26 m/s
24 m/s
22 m/s
20 m/s
18 m/s
16 m/s
14 m/s
12 m/s
10 m/s
8 m/s
6 m/s
4 m/s
2 m/s
3.0
2.8
2.6
2.4
2.2
2.0
1.8
1.6
1.4
1.2
1.0
0.8
0.6
0.4
0.2
15
14
13
12
11
10
9
8
7
6
5
4
3
2
1
90%
80%
70%
60%
50%
40%
30%
20%
10%
42
40
38
36
34
32
30
28
26
24
22
20
18
16
14
12
90+ cm
80-90 cm
70-80 cm
60-70 cm
50-60 cm
40-50 cm
30-40 cm
20-30 cm
10-20 cm
1-10 cm
Sneeuwval
Natte sneeuw
Regen
>120 mm
115 mm
110 mm
105 mm
100 mm
95 mm
90 mm
85 mm
80 mm
75 mm
70 mm
65 mm
60 mm
55 mm
50 mm
45 mm
45 mm
40 mm
35 mm
30 mm
25 mm
20 mm
15 mm
10 mm
5 mm
0.1 mm
960 hPa
880 hPa
800 hPa
720 hPa
640 hPa
560 hPa
584 gpdm
568 gpdm
552 gpdm
536 gpdm
520 gpdm
504 gpdm
488 gpdm
Extreem zwaar Noodweer Kans op onweer
15% 15% 5% 50% 15%

Dag




Kaart






35°
30°
25°
20°
15°
10°
-5°
-10°
-15°
-20°
-25°
-30°
-35°
120> km/h
105 km/h
90 km/h
75 km/h
60 km/h
50 km/h
40 km/h
30 km/h
20 km/h
10 km/h
0 km/h
Extreem zwaar Noodweer Kans op onweer
15% 15% 5% 50% 15%
>120 mm
115 mm
110 mm
105 mm
100 mm
95 mm
90 mm
85 mm
80 mm
75 mm
70 mm
65 mm
60 mm
55 mm
50 mm
45 mm
45 mm
40 mm
35 mm
30 mm
25 mm
20 mm
15 mm
10 mm
5 mm
0.1 mm
Onweer risico kaarten - De groene en gele kleur geeft de kans op onweer aan binnen 40 km van een punt. Oranje, rood en violet hebben hetzelfde niveau zoals je het ziet op estofex.org waaronder ook de kans op hagel en supercells.

dBZ - dBZ staat voor decibel ten opzichte van Z.

Cape - Convective available potential energy (CAPE), is de totale hoeveelheid energie die een luchtpakketje nodig heeft om zover mogelijk te stijgen in de atmosfeer.

K Index - K-Index wordt berekend door de Vertical Totals (VT) en het verschil tussen de 850 hPa temperatuur en de 700 hPa dauwpuntsdepressie (Tdd 700) bij elkaar op te tellen.

TT Index - Convectie index wordt gebruikt voor het voorspellen van zware buien of onweer.

WRF - The Weather Research and Forecasting (WRF) is een volgende generatie mesoscale numeriek weersvoorspelling systeem ontworpen om zowel de operationele planning als het atmosferisch onderzoek te dienen. WRF is a cooperatie tussen het National Center for Atmospheric Research (NCAR), National Centers for Environmental Prediction (NCEP), Forecast Systems Laboratory (FSL), Air Force Weather Agency (AFWA), Naval Research Laboratory, University of Oklahoma, en de Federal Aviation Administration (FAA). Deze software draait op onze server.

WRFDA - Een meer geavanceerde versie van WRF

Arome - Het 2.5 km Arome model. Verzorgd door het Noors Meteorologisch Instituut.

MET Norway - De proff-default 4km meteorological data is een beste keus selectie van meteorologische modellen gebruikt door met.no die zijn ge´nterpoleerd tot een gemeenschappelijke dataset. Verzorgd door het Noorse Meteorologisch Instituut.

SMHI - Het Hirlam model verzorgd door het Zweeds meteorologisch instituut.

FMI - Het Hirlam model verzorgd door het Fins meteorologisch instituut. Dekking alleen Finland.

GFS - Het Global Forecast Systeem (GFS) is een wereldwijd numerieke weersvoorspelling computermodel, gerund door NOAA.

GEM-GDPS - Het GEM-GDPS is a wereldwijd numeriek weersvoorspelling computermodel verzorgd door het Canadees Meteorologisch Centrum.

Credits/Info: Dank aan Stefan Gofferje van sääkeskus.fi voor enkele formules van GrADS. Info: Wikipedia.

Betrouwbaarheid van de verwachting

NB! 2015-03-29: Rebuilding the accuracy-test!

EWNACC
Day 1 Good forecasts

Dag 1 Tmax

Dag 2 Tmax

Geladen verwachtingen TOP 50

Totaal geladen verwachtingen:
Plaats Latitude Longitude Verwachtingen Plaats Latitude Longitude Verwachtingen